M5DJC Weather Reports


time (UTC)temp
F
wind
direction
speed
knots
gust
knots
rain 1hr
in
rain 24hr
in
rain mn
in
humidity
%
barometer
mb
20260507141536 57 129 1.7 5.2 0.00 0.00 0.00 59 1016.2
20260507140033 57 0 0.9 6.1 0.00 0.00 0.00 61 1016.4
20260507134532 57 131 2.6 6.1 0.00 0.00 0.00 60 1016.6
20260507133033 57 132 1.7 6.1 0.00 0.00 0.00 58 1016.5
20260507131539 58 133 1.7 6.1 0.00 0.00 0.00 60 1016.5
20260507130033 58 123 2.6 7.0 0.00 0.00 0.00 59 1016.5
20260507124535 60 137 3.5 8.7 0.00 0.00 0.00 56 1016.5
20260507123033 59 113 3.5 7.8 0.00 0.00 0.00 59 1016.4
20260507121531 61 0 1.7 11.3 0.00 0.00 0.00 59 1016.4
20260507120032 59 149 1.7 9.6 0.00 0.00 0.00 62 1016.4
20260507114532 56 129 3.5 8.7 0.00 0.00 0.00 62 1016.8
20260507113036 59 118 4.3 8.7 0.00 0.00 0.00 59 1016.9
20260507111538 58 95 4.3 8.7 0.00 0.00 0.00 64 1016.9
20260507110033 58 151 4.3 8.7 0.00 0.00 0.00 65 1017.0
20260507104535 58 139 1.7 8.7 0.00 0.00 0.00 67 1017.0
20260507103030 56 114 2.6 9.6 0.00 0.00 0.00 66 1017.0
20260507101552 55 206 1.7 7.0 0.00 0.00 0.00 70 1017.1
20260507100035 55 106 1.7 7.8 0.00 0.00 0.00 67 1017.2
20260507094532 53 239 1.7 5.2 0.00 0.00 0.00 76 1017.3
20260507093034 52 133 0.0 3.5 0.00 0.00 0.00 74 1017.2
20260507091550 53 0 0.0 8.7 0.00 0.00 0.00 75 1017.2
20260507090033 53 131 2.6 8.7 0.00 0.00 0.00 76 1017.1
20260507084530 53 7 0.9 5.2 0.00 0.00 0.00 74 1017.1
20260507083032 53 167 2.6 8.7 0.00 0.00 0.00 74 1017.0
20260507081548 52 95 0.0 8.7 0.00 0.00 0.00 77 1017.0
20260507080033 52 124 1.7 7.8 0.00 0.00 0.00 76 1016.8
20260507074537 51 176 1.7 7.0 0.00 0.00 0.00 78 1017.0
20260507073036 50 120 2.6 7.8 0.00 0.00 0.00 81 1016.9
20260507071530 49 118 3.5 8.7 0.00 0.00 0.00 83 1016.8
20260507070036 47 116 3.5 6.1 0.00 0.00 0.00 86 1016.7
20260507064533 46 133 1.7 4.3 0.00 0.00 0.00 91 1016.7
20260507063031 44 133 2.6 6.1 0.00 0.00 0.00 95 1016.6
20260507061534 42 130 3.5 6.1 0.00 0.00 0.00 98 1016.4
20260507060034 38 127 0.9 1.7 0.00 0.00 0.00 97 1016.5
20260507054533 36 0 0.0 0.0 0.00 0.00 0.00 96 1016.3
20260507053036 35 0 0.0 0.0 0.00 0.00 0.00 95 1016.4
20260507051532 34 0 0.0 0.0 0.00 0.00 0.00 94 1016.4
20260507050033 34 0 0.0 0.0 0.00 0.00 0.00 94 1016.4
20260507044543 35 0 0.0 0.0 0.00 0.00 0.00 94 1016.3
20260507043037 35 0 0.0 0.0 0.00 0.00 0.00 94 1016.2
20260507041531 35 0 0.0 0.0 0.00 0.00 0.00 94 1016.3
20260507040034 36 0 0.0 0.0 0.00 0.00 0.00 94 1016.4
20260507034533 36 0 0.0 0.0 0.00 0.00 0.00 94 1016.5
20260507033032 37 0 0.0 0.0 0.00 0.00 0.00 93 1016.5
20260507031532 37 0 0.0 0.0 0.00 0.00 0.00 93 1016.5
20260507030030 38 0 0.0 0.0 0.00 0.00 0.00 93 1016.5
20260507024535 39 0 0.0 0.0 0.00 0.00 0.00 94 1016.5
20260507023034 39 0 0.0 0.0 0.00 0.00 0.00 94 1016.6
20260507021534 39 0 0.0 0.0 0.00 0.00 0.00 94 1016.5
20260507020034 39 0 0.0 0.0 0.00 0.00 0.00 94 1016.4
20260507014537 39 0 0.0 0.0 0.00 0.00 0.00 94 1016.4
20260507013035 39 0 0.0 0.9 0.00 0.00 0.00 94 1016.4
20260507011534 39 0 0.0 0.0 0.00 0.00 0.00 94 1016.5
20260507010032 38 0 0.0 0.9 0.00 0.00 0.00 94 1016.4
20260507004532 38 0 0.0 0.0 0.00 0.00 0.00 93 1016.5
20260507003031 38 0 0.0 0.9 0.00 0.00 0.00 93 1016.7
20260507001531 38 0 0.0 0.0 0.00 0.00 0.00 92 1016.6
20260507000032 38 0 0.0 0.0 0.00 0.00 0.00 91 1016.6
20260506234534 39 0 0.0 0.0 0.00 0.00 0.00 90 1016.5
20260506233032 39 0 0.0 0.0 0.00 0.00 0.00 89 1016.7
20260506231535 40 0 0.0 0.0 0.00 0.00 0.00 89 1016.7
20260506230030 41 0 0.0 0.0 0.00 0.00 0.00 88 1016.7
20260506224534 42 0 0.0 3.5 0.00 0.00 0.00 88 1016.6
20260506223034 42 134 2.6 6.1 0.00 0.00 0.00 88 1016.4
20260506221534 42 141 2.6 4.3 0.00 0.00 0.00 89 1016.5
20260506220036 43 0 0.0 2.6 0.00 0.00 0.00 89 1016.6
20260506214534 43 141 0.9 1.7 0.00 0.00 0.00 90 1016.6
20260506213032 43 137 0.9 2.6 0.00 0.00 0.00 89 1016.6
20260506211532 43 148 0.9 2.6 0.00 0.00 0.00 89 1016.6
20260506210032 43 141 0.9 2.6 0.00 0.00 0.00 88 1016.5
20260506204534 43 140 0.9 3.5 0.00 0.00 0.00 88 1016.2
20260506203034 43 0 0.9 6.1 0.00 0.00 0.00 88 1016.0
20260506201542 44 103 0.9 8.7 0.00 0.00 0.00 87 1015.9
20260506200033 44 147 0.9 4.3 0.00 0.00 0.00 87 1015.9
20260506194540 44 159 0.9 6.1 0.00 0.00 0.00 86 1016.0
20260506193037 44 111 0.9 5.2 0.00 0.00 0.00 85 1016.0
20260506191536 45 146 0.9 6.1 0.00 0.00 0.00 84 1015.9
20260506190032 45 149 0.9 4.3 0.00 0.00 0.00 84 1015.9
20260506184540 46 0 0.9 6.1 0.00 0.00 0.00 84 1015.7
20260506183030 46 136 2.6 7.0 0.00 0.00 0.00 83 1015.8
20260506181532 46 171 1.7 7.0 0.00 0.00 0.00 83 1015.7
20260506180034 46 133 1.7 5.2 0.00 0.00 0.00 83 1015.7
20260506174534 46 112 2.6 7.8 0.00 0.00 0.00 84 1015.6
20260506173040 46 158 0.9 6.1 0.00 0.00 0.00 85 1015.7
20260506171544 46 193 1.7 6.1 0.00 0.00 0.00 86 1015.7
20260506170032 46 0 0.0 6.1 0.00 0.00 0.00 86 1015.7
20260506164535 46 50 1.7 7.0 0.00 0.00 0.00 86 1015.6
20260506163046 46 160 0.9 7.8 0.00 0.00 0.00 88 1015.6
20260506161538 46 263 0.9 7.0 0.00 0.00 0.00 88 1015.6
20260506160034 46 0 0.9 6.1 0.00 0.00 0.00 88 1015.5
20260506154537 46 172 0.9 7.0 0.00 0.00 0.00 89 1015.7
20260506153038 47 62 0.0 5.2 0.00 0.00 0.00 87 1015.7
20260506151534 47 174 0.9 5.2 0.00 0.00 0.00 85 1015.6
20260506150032 48 195 0.9 6.1 0.00 0.00 0.00 83 1015.5
20260506144537 48 357 0.9 5.2 0.00 0.00 0.00 83 1015.5
20260506143032 49 337 0.9 6.1 0.00 0.00 0.00 82 1015.5